Location: Bouillancy
(49.1149°N, 2.9308°E)
Time: 08:10:35
(UTC+00:00)

Resurs 01 Rocket - Pass Details

Date: 30 September 2020
Orbit: 633 x 645 km, 98.0° (Epoch: 29 October)

Event Time Altitude Azimuth Distance (km) Brightness Sun altitude
Exits shadow 19:10:01 22° 60° (ENE) 1,401 3.0 -17.3°
Drops below altitude 10° 19:13:20 10° 12° (NNE) 2,047 4.3 -17.8°
Sets 19:15:55 0° 357° (N) 2,959 5.3 -18.2°
